Regional Weather Roundup
Issued by NWS San Angelo, TX

Home | Current Version | Previous Version | Text Only | Print | Product List | Glossary On
Versions: 1 2 3 4 5 6 7 8 9 10 11 12 13 14 15 16 17 18 19 20 21 22 23 24 25 26 27 28 29 30 31 32 33 34 35 36 37 38 39 40 41 42 43 44 45 46 47 48 49 50
000
ASUS44 KSJT 261611
RWRSJT
WEST CENTRAL TEXAS REGIONAL WEATHER ROUNDUP
NATIONAL WEATHER SERVICE SAN ANGELO TX
1100 AM CDT MON SEP 26 2016

NOTE: "FAIR" INDICATES FEW OR NO CLOUDS BELOW 12,000 FEET WITH NO
SIGNIFICANT WEATHER AND/OR OBSTRUCTIONS TO VISIBILITY.

TXZ049-054-064>066-071>073-076>078-098-099-113-114-127-128-139-140-
154-155-168>170-261700
...LOCATIONS ACROSS WEST CENTRAL TEXAS...

CITY           SKY/WX    TMP DP  RH WIND       PRES   REMARKS
SAN ANGELO     CLOUDY    63  55  75 NE13      30.27R
ABILENE        CLOUDY    64  54  69 N12       30.29R
DYESS AFB      CLOUDY    65  52  63 NE12      30.28R
JUNCTION       LGT RAIN  63  62  97 NE12      30.21R
SWEETWATER     CLOUDY    65  53  64 NE17      30.33S
BROWNWOOD      LGT RAIN  63  57  82 N8        30.24R
COLEMAN        LGT RAIN  62  56  82 N8        30.26R
SONORA         LGT RAIN  59  59 100 N23       30.28R
OZONA          RAIN      59  55  88 NE16G25   30.28R
BRADY          NOT AVBL
$$

TEXAS PANHANDLE/OKLAHOMA PANHANDLE

CITY           SKY/WX    TMP DP  RH WIND       PRES   REMARKS
AMARILLO       SUNNY     65  37  35 VRB6      30.42S
BORGER         SUNNY     63  35  35 NE7       30.41F
CANADIAN       SUNNY     61  45  56 CALM      30.40S
DALHART        SUNNY     68  31  25 N6        30.44R
DUMAS          SUNNY     62  35  36 CALM      30.43S
GUYMON         NOT AVBL
HEREFORD       SUNNY     66  44  45 E8        30.43S
PAMPA          SUNNY     65  39  38 E7        30.41F
PERRYTON       SUNNY     67  33  28 CALM      30.39S
$$

SOUTHERN PANHANDLE/SOUTH PLAINS/ROLLING PLAINS

CITY           SKY/WX    TMP DP  RH WIND       PRES   REMARKS
LUBBOCK        PTSUNNY   66  42  41 NE17      30.37F
SNYDER           N/A     64  50  60 NE8G16    30.33R
CHILDRESS      SUNNY     67  45  45 NE12      30.36S
SEMINOLE       CLOUDY    63  48  59 NE12G18   30.37S
$$

PERMIAN BASIN

CITY           SKY/WX    TMP DP  RH WIND       PRES   REMARKS
MIDLAND        CLOUDY    65  47  52 NE18      30.32R
ODESSA         CLOUDY    64  47  53 E16       30.34R
WINK           CLOUDY    62  48  60 NE5       30.35R
$$

FAR WEST/SOUTHWEST MOUNTAINS/TRANS PECOS

CITY           SKY/WX    TMP DP  RH WIND       PRES   REMARKS
ALPINE         CLOUDY    50  49  98 N20G25    30.43R
DRYDEN           N/A     62  61  96 N13G21    30.22R
EL PASO        CLOUDY    58  46  64 SE7       30.35R
FORT STOCKTON  RAIN      55  52  89 N3        30.35R FOG
GUADALUPE PASS LGT RAIN  49  45  86 NE52G62   30.36R WCI  38
MARFA          CLOUDY   N/A N/A N/A N29G35    30.34R
PECOS          LGT RAIN  62  50  65 S7          N/A
$$

DALLAS/FORT WORTH METROPLEX

CITY           SKY/WX    TMP DP  RH WIND       PRES   REMARKS
DFW AIRPORT    CLOUDY    69  55  60 N15       30.18R
FTW MEACHAM    CLOUDY    68  56  65 N16       30.19R
DAL-EXECUTIVE  CLOUDY    66  62  87 N9        30.17R
GRAND PRAIRIE  CLOUDY    66  57  72 N12G21    30.19R
ADDISON        CLOUDY    66  57  72 N15       30.19R
MESQUITE       CLOUDY    66  64  94 N8        30.17R
LANCASTER      LGT RAIN  68  63  84 N12G17    30.18R
$$

NORTH CENTRAL TEXAS

CITY           SKY/WX    TMP DP  RH WIND       PRES   REMARKS
SHRMAN/DENISON CLOUDY    68  58  70 N14G20    30.22R
GAINESVILLE      N/A     69  56  64 N13G20    30.23S
BRIDGEPORT     CLOUDY    69  58  69 NE10      30.25R
DENTON         CLOUDY    65  60  84 E8        30.21R
WAXAHACHIE     CLOUDY    65  64  99 N9        30.18R
GRANBURY       CLOUDY    68  57  68 N8        30.22S
$$

WESTERN NORTH TEXAS

CITY           SKY/WX    TMP DP  RH WIND       PRES   REMARKS
WICHITA FALLS  MOSUNNY   70  54  56 N17       30.27S
VERNON         SUNNY     70  46  41 NE13G18   30.32S
BRECKENRIDGE     N/A     68  56  64 N12       30.26R
COMANCHE       CLOUDY    63  60  91 N7        30.23R
$$

CENTRAL AND SOUTH CENTRAL TEXAS

CITY           SKY/WX    TMP DP  RH WIND       PRES   REMARKS
AUSTIN/BERGSTM CLOUDY    73  71  93 N16G24    30.12R FOG
WACO           CLOUDY    69  64  84 N12       30.16R
HILLSBORO      CLOUDY    65  61  89 N13       30.17R
TEMPLE         CLOUDY    68  65  90 N13       30.16R
KILLEEN-GRAY   CLOUDY    65  64  97 NE12      30.16S
FORT HOOD      CLOUDY    64  63  96 N13       30.15R
GEORGETOWN     CLOUDY    86  64  48 N12       30.15R
LAGO VISTA     DRIZZLE   68  67  97 N14G20    30.15S
SAN MARCOS     RAIN      72  72 100 CALM      30.14R FOG
NEW BRAUNFELS  RAIN      71  70  96 N7        30.10S FOG
RANDOLPH AFB   LGT RAIN  72  72 100 N9        30.11R
SAN ANTONIO    LGT RAIN  73  70  90 NE6       30.12R
STINSON        CLOUDY    75  69  81 N10       30.08S
PLEASANTON     NOT AVBL
LA GRANGE      CLOUDY    77  74  88 NE6       30.08R
GIDDINGS       CLOUDY    74  71  88 NE7       30.14S
$$

EAST TEXAS

CITY           SKY/WX    TMP DP  RH WIND       PRES   REMARKS
PARIS          CLOUDY    70  57  64 NE13      30.18R
CLARKSVILLE    NOT AVBL
TYLER          CLOUDY    74  68  81 N9        30.12R
LONGVIEW       LGT RAIN  74  72  93 N6        30.10S FOG
PALESTINE      CLOUDY    72  71  97 N5        30.13R
NACOGDOCHES    CLOUDY    77  73  88 N3        30.08S
$$

TEXAS HILL COUNTRY AND EDWARDS PLATEAU

CITY           SKY/WX    TMP DP  RH WIND       PRES   REMARKS
LLANO          LGT RAIN  64  64 100 NE6       30.22R
HORSESHOE BAY  LGT RAIN  66  65  95 NE6       30.17R
KERRVILLE      RAIN      65  64  95 N8        30.17R
FREDERICKSBRG  DRIZZLE   65  63  93 N5        30.18R
ROCKSPRINGS    CLOUDY    63  61  94 NE12G21   30.21R
HONDO          PTSUNNY   75  69  81 NE10      30.12R
UVALDE         CLOUDY    72  68  87 NE12      30.12R
DEL RIO        CLOUDY    72  66  81 NE13      30.12R
$$

SOUTHEAST TEXAS

CITY           SKY/WX    TMP DP  RH WIND       PRES   REMARKS
COLLEGE STN    CLOUDY    74  72  93 N9        30.11R
CALDWELL       NOT AVBL
CROCKETT       NOT AVBL
BRENHAM        CLOUDY    77  74  92 N7        30.11S FOG
HUNTSVILLE     CLOUDY    73  71  93 N5        30.10R
CONROE         CLOUDY    77  72  84 NE6       30.09R
HOUSTON BUSH   CLOUDY    81  74  79 N8        30.07R
HOUSTON HOBBY  CLOUDY    82  73  74 NE7       30.05S
PERLAND        PTSUNNY   86  73  65 E6        30.07R
WHARTON        MOSUNNY  N/A N/A N/A N5        30.07S
$$

THE UPPER TEXAS COAST

CITY           SKY/WX    TMP DP  RH WIND       PRES   REMARKS
ORANGE         MOSUNNY   82  76  84 CALM      30.06S
PORT ARTHUR    PTSUNNY   86  74  67 NE6       30.03S
GALVESTON      MOSUNNY   81  76  84 NE9       30.05S
ANGLETON       PTSUNNY   83  75  77 NE7       30.05R
BAY CITY       CLOUDY    80  76  90 NE7       30.06S
$$

TEXAS COASTAL BEND, RIO GRANDE PLAINS DEEP SOUTH TEXAS

CITY           SKY/WX    TMP DP  RH WIND       PRES   REMARKS
VICTORIA       CLOUDY    80  75  84 NE8       30.06S
BEEVILLE       PTSUNNY   80  76  86 NE7       30.06R
ROCKPORT       PTSUNNY   80  75  84 N10       30.03R
PORT ARANSAS   CLOUDY    79  77  94 NE8       30.03R
PORT LAVACA    PTSUNNY   79  76  90 CALM      30.05S
CORPUS CHRISTI CLOUDY    81  76  84 NE7       30.03R
KINGSVILLE NAS CLOUDY    82  77  84 E7        30.03R
COTULLA        LGT RAIN  78  72  81 NE6       30.08R
LAREDO         CLOUDY    76  73  91 NE9       30.07R
BROWNSVILLE    MOSUNNY   80  73  79 E5        29.99F
PORT ISABEL    CLOUDY    82  76  81 E7        29.99R
HEBBRONVILLE   DRIZZLE   74  73  94 NE7       30.07R
MCALLEN        CLOUDY    81  75  82 E7        30.01R
WESLACO        CLOUDY    81  75  81 E8        30.00R
FALFURRIAS     CLOUDY    81  73  77 N5        30.02R
EDINBURG       CLOUDY    83  75  78 E8        30.02R
$$



USA.gov is the U.S. government's official web portal to all federal, state and local government web resources and services.